Location: Ottawa
(45.4170°N, 75.7000°W)
Time: 14:41:38
(UTC-04:00)

Daily predictions for brighter satellites

Satellite Brightness Start Highest point End
(mag) Time Altitude Azimuth Time Altitude Azimuth Time Altitude Azimuth
Cosmos 1452 Rocket 3.6 19:08:39 10° NNW 19:13:52 59° ENE 19:19:02 10° SE
MSX 4.3 19:11:09 10° S 19:16:52 71° WSW 19:22:38 10° NNW
In-Cosmos 22 4.4 19:14:02 10° N 19:19:44 56° ENE 19:25:22 10° SSE
Cosmos 2034 Rocket 4.3 19:14:07 10° SSE 19:19:58 44° E 19:25:56 10° NNE
Cosmos 1464 Rocket 4.1 19:14:19 10° S 19:20:24 58° E 19:26:27 10° NNE
DMSP B5D1-3 4.5 19:16:20 10° NNE 19:21:27 70° ESE 19:26:32 10° S
Cosmos 1470 4.5 19:20:09 10° ESE 19:22:05 13° E 19:24:01 10° NE
Cosmos 2333 Rocket 3.8 19:19:09 10° WSW 19:24:32 38° NW 19:29:55 10° NNE
Spot 1 4.4 19:21:36 10° SE 19:26:04 48° ENE 19:30:18 10° N
Cosmos 1674 4.0 19:24:35 10° NNE 19:27:37 21° ENE 19:30:38 10° ESE
CZ-4C R/B 3.4 19:23:06 10° WSW 19:28:20 44° NW 19:34:16 10° NNE
SKYMED 2 3.9 19:26:49 10° N 19:31:10 71° WNW 19:35:28 10° SSW
CENTAUR R/B 3.6 19:26:50 10° SSE 19:31:19 22° ESE 19:36:09 10° ENE
Cosmos 1408 Rocket 3.5 19:27:55 10° N 19:32:17 72° E 19:36:35 10° SSE
ATLAS CENTAUR R/B 3.8 19:27:51 10° SSW 19:32:59 68° SE 19:49:33 10° NE
SJ-6B 2.8 19:29:54 10° SSE 19:33:54 85° ENE 19:38:02 10° NNW
Cosmos 1420 Rocket 4.3 19:28:51 10° NNW 19:34:01 51° ENE 19:39:11 10° SE
Cosmos 724 4.5 19:31:31 10° SSW 19:37:15 54° ESE 19:43:10 10° NE
ATLAS 5 CENTAUR R/B 1.8 19:33:20 10° SSW 19:38:07 72° SE 19:43:20 10° NE
FengYun 1-2 T 4.4 19:36:12 10° SE 19:41:29 50° ENE 19:46:46 10° N
NOSS 3-2 (C) 3.5 19:35:36 10° SSW 19:41:42 84° SE 19:48:28 10° NE
Cosmos 2237 Rocket 4.0 19:37:36 10° WSW 19:42:43 33° NW 19:47:50 10° N
Cosmos 192 4.5 19:38:06 10° SSW 19:43:03 82° WNW 19:48:04 10° NNE
Cosmos 1484 Rocket 4.5 19:41:13 10° SSW 19:44:49 37° W 19:48:30 10° NNW
ALOS 2.8 19:43:12 10° SE 19:47:32 39° ENE 19:51:52 10° N
ERBS 4.3 19:45:20 10° NNW 19:47:56 19° NNE 19:49:48 13° ENE
Cosmos 1758 3.3 19:44:12 10° S 19:48:16 68° E 19:52:22 10° NNE
Helios 1A 3.0 19:47:28 10° SSE 19:51:38 65° ENE 19:55:50 10° N
Spot 2 Rocket 3.4 19:46:56 10° SSE 19:51:57 77° ENE 19:57:00 10° NNW
ISS -2.2 19:51:08 10° SSW 19:53:54 26° SE 19:54:42 23° ESE
Cosmos 1048 Rocket 4.3 19:50:21 10° S 19:55:20 43° ESE 20:00:17 10° NNE
Cosmos 1544 3.1 19:54:10 10° S 19:57:50 58° E 20:01:32 10° NNE
Cosmos 1269 Rocket 4.1 19:53:08 10° S 19:58:15 54° ESE 20:03:24 10° NNE
METEOR-M 4.2 19:54:57 10° SSE 20:00:19 83° WSW 20:05:43 10° NNW
Meteor 1-21 Rocket 4.2 19:54:52 10° N 20:00:28 89° E 20:06:00 10° S
Resurs 1-3 3.5 19:56:54 10° SSE 20:01:15 72° ENE 20:05:38 10° N
SL-8 R/B 4.1 19:57:08 10° SW 20:01:42 45° SSE 20:04:20 23° E
Cosmos 1743 Rocket 3.5 19:57:49 10° N 20:02:17 72° E 20:06:40 10° SSE
Envisat 4.4 20:02:22 18° ENE 20:03:14 18° ENE 20:06:39 10° NNE
SL-16 R/B 3.3 19:58:43 10° SW 20:04:10 47° WNW 20:09:42 10° NNE
Resurs 01 Rocket 1.7 20:02:28 10° S 20:06:55 79° WSW 20:11:23 10° NNW
HJ-1C 3.9 20:07:23 10° S 20:10:41 59° W 20:14:02 10° NNW
Cosmos 1328 4.5 20:07:58 10° N 20:11:35 32° ENE 20:12:09 31° E
USA 215 3.4 20:06:21 10° ENE 20:12:44 54° SE 20:19:05 10° SSW
Cosmos 158 Rocket 4.3 20:09:37 10° SSE 20:14:03 36° ESE 20:18:31 10° NE
FENGYUN 3A 3.6 20:11:03 10° SSE 20:16:24 72° ENE 20:21:48 10° N
CZ-2D R/B 3.3 20:15:36 25° SE 20:17:42 59° ENE 20:21:33 10° N
Helios 1B rocket 2.6 20:18:28 10° N 20:22:35 74° WNW 20:26:41 10° SSW
Nadezhda 4 Rocket 4.1 20:16:40 10° N 20:22:58 81° W 20:29:10 10° S
Abrixas 2.7 20:24:20 10° SW 20:26:59 55° S 20:26:59 55° S
GP-B 3.2 20:24:54 10° NNE 20:29:15 51° E 20:30:36 37° SE
H-2A R/B 2.6 20:28:07 30° SSE 20:29:59 80° ENE 20:33:52 10° N
Cosmos 1092 Rocket 3.9 20:25:43 10° N 20:31:58 88° E 20:38:08 10° S
CZ-4B DEB 3.1 20:31:57 32° S 20:33:18 67° WSW 20:36:35 10° NNW
CZ-4B DEB 4.4 20:34:21 62° SE 20:34:50 75° ENE 20:38:26 10° N
ERS-1 Rocket 3.5 20:35:35 36° ENE 20:35:57 37° ENE 20:40:34 10° N
Cosmos 1655 Rocket 4.1 20:32:03 10° N 20:38:08 52° ENE 20:40:32 34° SE
Cosmos 1943 Rocket 2.6 20:33:09 10° NNW 20:38:31 43° ENE 20:39:37 39° E
Gbstr 26 Del rocket 3.5 20:34:40 10° SW 20:39:05 50° SE 20:39:49 46° ESE
Meteor 1-29 4.0 20:36:56 10° N 20:40:20 47° WNW 20:43:42 10° SSW
Cosmos 1953 4.3 20:37:22 10° SW 20:40:53 30° WNW 20:44:26 10° NNW
Cosmos 2142 Rocket 4.4 20:35:53 10° S 20:42:11 68° E 20:48:33 10° NNE
Cosmos 2369 Rocket 2.2 20:36:37 10° NNW 20:42:19 85° WSW 20:45:20 29° SSE
Cosmos 2026 Rocket 3.9 20:38:04 10° N 20:44:08 63° ENE 20:46:56 33° SSE
H-2A R/B 4.0 20:46:02 18° NE 20:46:02 18° NE 20:47:50 10° NNE
Cosmos 1805 Rocket 4.3 20:40:31 10° N 20:43:50 36° NE 20:43:50 36° NE
Cosmos 1110 Rocket 4.0 20:39:32 10° NNW 20:44:50 65° ENE 20:46:09 48° SE
Cosmos 1943 3.0 20:39:48 10° SSW 20:45:24 71° ESE 20:51:01 10° NNE
Cosmos 2058 3.3 20:44:34 10° N 20:47:53 47° NE 20:47:53 47° NE
Cosmos 1634 Rocket 3.9 20:43:49 10° S 20:50:03 81° E 20:56:17 10° N
Cosmos 2151 2.8 20:47:18 10° N 20:51:33 90° WSW 20:52:06 67° S
Cosmos 2263 4.1 20:45:57 10° NNW 20:51:47 84° ENE 20:53:42 44° SSE
Cosmos 2221 4.2 20:57:14 22° NNE 20:57:14 22° NNE 20:58:52 10° NNE
Cosmos 1733 3.7 20:51:58 10° SSW 20:55:47 60° W 20:59:37 10° N
Cosmos 1470 3.7 20:54:01 10° SSW 20:57:46 46° WNW 21:01:32 10° N
Cosmos 839 Rocket 4.4 20:53:01 10° NW 21:00:46 74° WSW 21:03:47 35° SSE
ASTEX 1 4.2 20:58:15 10° N 21:03:01 51° WNW 21:07:44 10° SSW
Meteor 2-20 4.3 21:06:01 10° N 21:12:09 66° ENE 21:12:34 64° ESE
Meteor 2-1 Rocket 4.1 21:16:32 74° SE 21:16:54 77° E 21:22:49 10° NNE
Cosmos 1331 Rocket 4.0 21:11:41 10° NNW 21:17:01 79° WSW 21:17:26 73° SSW
SPOT 5 4.5 21:23:17 21° N 21:23:17 21° N 21:24:56 10° N
CENTAUR R/B 2.6 21:14:55 10° SW 21:21:04 77° NW 21:28:05 10° NE
ATLAS 5 CENTAUR R/B 4.0 21:19:15 10° W 21:23:23 25° NNW 21:27:50 10° NNE
ALOS 4.4 21:21:18 10° SSW 21:25:05 24° W 21:28:55 10° NW
Meteor 1-16 Rocket 4.3 21:22:42 31° SSW 21:25:16 68° WNW 21:30:36 10° N
Cosmos 1302 Rocket 4.3 21:24:39 10° NNW 21:28:55 59° N 21:28:55 59° N
ISS -0.2 21:27:01 10° WSW 21:27:24 13° W 21:27:24 13° W
Envisat 3.5 21:42:34 56° NW 21:42:34 56° NW 21:46:48 10° NNW
Cosmos 1656 Rocket 4.4 21:37:31 10° NNW 21:41:22 44° N 21:41:22 44° N
USA 215 3.7 21:53:08 35° NNE 21:55:47 57° NNW 22:02:09 10° WSW
H-2A R/B 4.2 22:01:02 17° NNE 22:01:02 17° NNE 22:02:21 10° N
Cosmos 1943 Rocket 3.8 22:17:13 10° NW 22:21:10 29° W 22:21:10 29° W
CZ-3A R/B 4.4 22:04:42 10° SW 22:27:53 64° SSW 22:27:53 64° SSW
CENTAUR R/B 4.5 23:07:35 10° W 23:12:59 26° NNW 23:18:57 10° NNE
